Theta_e
314 311 305 310 318 321 324 328 330 329 333 328 327 337 339 344 348 350 353 354 353 359 359 359 359 359 359 360 359 358 357 358
308 306 310 312 319 323 324 328 331 332 326 335 340 339 343 347 350 351 351 352 356 359 359 358 359 359 360 359 359 358 358 357
305 306 309 313 318 324 323 324 326 331 326 330 340 345 346 348 348 348 349 351 353 358 359 359 359 358 359 359 359 359 357 356
302 306 309 317 322 325 324 326 328 329 328 331 342 343 346 348 347 349 348 350 352 357 359 359 358 359 359 359 359 358 357 356
303 304 307 312 324 323 324 325 326 331 324 332 338 344 347 347 346 347 350 349 351 352 356 359 359 359 359 359 359 358 358 357
303 303 305 316 324 327 325 323 335 336 327 327 337 343 344 345 344 344 348 349 348 348 351 353 355 358 359 359 358 358 356 356
301 302 305 320 321 328 331 327 329 333 334 334 341 344 342 339 340 341 344 346 346 347 348 350 350 354 358 357 356 356 355 354
304 307 306 313 320 321 325 325 327 328 333 336 340 340 334 335 335 337 340 343 344 346 348 350 350 352 353 351 352 351 351 352
304 306 307 307 314 323 323 320 326 323 331 334 337 336 336 336 335 335 338 342 343 346 351 350 349 350 351 350 351 352 353 353
304 306 305 305 308 310 317 314 317 327 332 335 334 335 334 333 332 335 337 340 343 346 349 351 349 350 350 349 350 349 350 353
304 303 304 305 305 308 315 322 323 332 332 334 335 336 338 336 334 336 336 339 341 344 347 349 351 350 350 349 349 349 350 351
304 304 302 301 304 312 311 321 320 329 330 333 335 336 337 338 335 335 336 338 341 342 348 346 348 350 350 350 350 351 349 349
302 302 302 308 310 314 315 326 327 328 328 330 331 335 336 338 337 338 338 339 341 342 345 345 345 349 349 350 349 349 348 349
301 301 312 308 300 311 325 324 325 328 328 329 329 330 335 339 339 340 340 339 342 341 343 345 346 348 348 349 349 348 347 347
298 303 307 310 302 313 325 325 322 323 325 327 329 331 333 338 339 340 341 341 341 342 341 343 346 347 347 348 347 347 346 345
298 302 309 303 307 312 318 319 319 320 322 323 325 328 333 335 338 341 341 341 342 342 343 344 345 346 345 344 345 345 343 343
301 306 308 306 306 308 312 314 313 315 317 319 321 326 331 335 334 340 341 341 341 340 344 342 341 339 339 337 339 339 341 342
302 308 308 307 306 308 309 309 310 311 313 316 319 322 325 330 335 336 340 340 340 341 343 343 342 338 337 337 334 333 331 332
297 305 308 303 303 306 309 309 311 312 314 316 317 316 319 321 327 335 335 337 338 340 341 340 338 339 332 329 326 325 325 326
296 298 296 301 295 302 306 304 306 308 311 313 313 316 317 318 321 326 335 337 338 339 339 338 339 333 329 329 327 328 327 328
Wind_Speed
2 2 3 2 4 4 2 1 3 2 1 1 2 2 11 8 20 20 18 17 16 18 18 18 17 16 16 15 14 14 14 13
5 8 3 3 3 3 4 3 2 1 4 4 2 4 9 20 23 21 19 18 18 17 17 19 18 18 16 16 15 14 13 12
5 7 3 5 6 8 7 3 5 5 5 3 1 8 17 21 21 21 20 17 19 18 17 18 19 19 17 16 14 13 13 12
13 9 3 3 5 10 9 5 6 7 9 5 4 13 18 21 23 20 20 19 18 18 18 18 17 17 16 14 13 13 12 11
7 6 6 7 7 9 9 7 6 2 6 1 11 12 17 20 23 21 19 17 16 17 18 17 17 15 15 14 13 12 10 9
5 8 12 3 6 2 10 9 5 5 7 5 13 14 15 15 17 21 20 18 17 16 17 16 16 16 14 14 13 11 10 9
10 9 5 4 8 4 1 5 5 6 3 1 16 20 17 17 15 16 18 18 18 17 16 15 15 15 14 15 13 11 10 8
5 8 7 6 9 5 5 7 9 9 8 8 17 17 16 16 16 19 21 21 19 19 17 16 12 14 14 12 11 10 9 8
10 12 9 8 6 5 6 9 17 16 14 16 18 17 17 18 19 18 17 14 17 17 16 16 13 10 8 7 7 7 10 8
9 10 6 13 10 9 18 18 20 12 11 18 20 20 21 22 19 20 19 19 18 16 15 15 10 10 10 9 8 7 8 9
14 9 11 8 16 11 13 23 14 3 10 17 19 18 17 17 16 18 20 21 20 18 15 10 12 9 9 9 8 9 8 8
7 8 7 9 5 6 10 13 16 10 13 14 16 15 14 16 17 19 18 19 19 20 17 13 10 12 9 8 9 8 8 8
4 4 3 6 5 9 21 11 8 9 5 6 2 6 11 15 16 17 14 16 18 18 18 16 14 13 9 8 8 8 7 8
3 3 3 5 7 19 20 12 10 8 6 5 5 2 7 13 16 16 15 15 15 15 19 18 15 13 10 10 9 8 7 7
4 10 3 3 8 18 16 12 12 14 13 11 8 6 2 8 13 13 14 14 16 16 19 21 17 13 13 12 9 8 8 8
2 5 9 4 10 14 14 13 14 14 14 14 12 12 10 9 10 14 15 15 15 14 16 15 12 12 10 10 10 9 9 9
2 4 5 7 9 13 13 17 18 17 16 16 15 13 12 11 9 14 15 15 17 17 15 12 11 11 12 12 11 10 10 12
4 6 3 6 11 10 15 17 16 17 17 18 18 18 18 15 11 6 14 16 14 15 16 13 9 8 7 8 7 8 7 8
2 3 5 2 4 8 10 16 16 18 16 17 18 19 18 17 17 9 11 13 13 13 12 10 10 7 3 4 3 5 10 9
10 5 5 2 2 3 10 13 17 18 19 18 20 20 18 17 16 13 7 11 13 13 12 9 8 7 11 11 11 10 10 10
Wind_Direction
161 176 226 176 212 245 147 219 184 185 72 82 96 151 159 144 154 149 159 161 161 164 158 156 155 148 143 139 139 142 143 142
237 216 211 235 194 234 166 141 200 258 145 134 86 184 163 151 153 154 159 163 160 164 163 158 160 153 153 150 149 147 147 143
230 238 224 230 226 207 202 166 174 181 182 191 91 133 148 155 159 156 161 165 164 165 167 164 164 160 159 154 150 150 148 148
223 227 221 223 226 177 217 203 162 187 168 191 164 164 167 167 160 161 162 165 163 169 168 168 170 166 162 159 155 154 153 152
232 233 238 241 190 211 215 214 196 173 216 122 190 184 179 175 160 159 166 167 169 172 172 171 170 174 167 164 162 159 159 155
221 227 244 188 185 225 211 232 127 187 224 208 202 183 181 184 168 160 167 169 170 175 177 177 174 177 175 169 168 165 164 166
224 211 220 178 214 170 315 234 211 203 232 264 167 168 174 175 172 173 167 174 173 173 177 184 180 179 182 180 179 175 175 177
228 221 232 213 221 212 207 223 246 235 209 158 163 169 171 179 178 186 175 179 177 176 176 183 182 182 190 186 191 188 186 186
231 232 239 245 236 224 224 235 244 243 191 175 175 179 178 189 194 192 179 182 186 177 178 184 186 185 186 191 190 190 190 191
249 226 218 234 257 242 234 242 254 263 223 180 186 189 189 189 193 191 189 183 184 181 183 193 192 191 190 193 193 193 194 188
240 245 241 239 241 253 252 246 250 274 203 204 200 197 196 203 192 197 195 185 182 181 182 187 203 200 199 202 199 199 198 194
265 250 228 212 245 199 269 297 250 230 223 217 207 201 205 201 200 201 200 190 184 181 184 181 196 208 200 209 203 204 204 202
290 277 242 193 205 230 349 326 293 278 282 264 304 226 198 194 204 208 202 199 188 188 186 193 192 201 208 216 208 209 214 204
22 294 92 229 243 5 358 348 21 29 19 345 354 331 197 197 203 205 204 202 198 193 191 194 202 196 204 209 209 212 210 210
312 45 34 297 343 360 9 41 48 46 45 43 31 27 255 215 214 200 203 196 202 204 203 198 201 205 206 210 214 206 212 208
352 28 40 91 26 22 30 51 45 43 37 32 30 16 347 319 228 205 197 191 201 204 214 211 201 202 213 210 212 208 211 206
72 134 76 69 59 38 36 45 41 37 34 24 16 359 355 343 310 210 197 191 193 192 201 200 203 201 207 211 209 211 208 202
98 111 109 148 72 60 45 42 40 29 24 19 11 7 360 352 341 249 203 197 197 201 187 190 193 209 222 220 210 200 194 187
302 83 124 191 107 56 26 29 26 27 22 19 15 1 357 353 338 301 192 188 192 189 187 186 173 205 194 156 166 187 192 183
281 234 250 274 238 75 3 24 27 17 14 11 6 3 358 346 325 289 220 154 149 160 166 184 198 188 210 214 216 221 201 190